{"data":{"norad_id":64000,"epoch":"2026-09-20T21:59:50.918784Z","epoch_age_seconds":107686,"freshness":"FRESH","line1":"1 64000U 25101G   26263.91656156  .00002160  00000+0  87974-4 0  9994","line2":"2 64000  42.9975 335.3402 0000266   5.4482 354.6373 15.27577289 76912","mean_motion":15.27577289,"eccentricity":2.66e-5,"inclination_deg":42.9975,"raan_deg":335.3402,"arg_perigee_deg":5.4482,"mean_anomaly_deg":354.6373,"bstar":8.7974e-5,"rev_number":7691,"period_min":94.26691600938,"perigee_km":482.87470599485,"apogee_km":483.23972152702,"semimajor_km":6861.1942137609,"source":"CELESTRAK","updated_at":"2026-09-21T09:00:35.180938Z"}}